Weather History for Randolph AFB, TX

Change the Weather History Date:

Sunday, June 30, 2013

  Actual Average Record
Temperature  
Mean Temperature 79 °F -  
Max Temperature 87 °F 89 °F 100 °F (1998)
Min Temperature 70 °F 72 °F 69 °F (2004)
Cooling Degree Days 14    
Growing Degree Days 29 (Base 50)    
Moisture  
Dew Point 67 °F    
Average Humidity 72    
Maximum Humidity 92    
Minimum Humidity 40    
Precipitation  
Precipitation 0.15 in - - ()
Sea Level Pressure  
Sea Level Pressure 29.89 in    
Wind  
Wind Speed 8 mph (NNW)    
Max Wind Speed 24 mph    
Max Gust Speed 34 mph    
Visibility 10 miles    
Events Rain , Thunderstorm    
Averages and records for this station are not official NWS values.
T = Trace of Precipitation, MM = Missing Value Source: NWS Daily Summary

Daily Weather History Graph

Daily Weather History Graph

Search for Another Location

Airport:

Trip Planner

Search our weather history database for the weather conditions in past years. The results will help you decide how hot, cold, wet, or windy it might be!

Date:

Astronomy

Jun. 30, 2013 Rise Set
Actual Time 6:36 AM CDT 8:37 PM CDT
Civil Twilight 6:09 AM CDT 9:04 PM CDT
Nautical Twilight 5:36 AM CDT 9:37 PM CDT
Astronomical Twilight 5:01 AM CDT 10:12 PM CDT
Moon 1:14 AM CDT (6/30) 2:12 PM CDT (6/30)
Length of Visible Light 14h 55m
Length of Day
14h 00m
Last Quarter, 45% of the Moon is Illuminated
Jun 30
Last Quarter
Jul 8
New
Jul 15
First Quarter
Jul 22
Full
Jul 29
Last Quarter

Hourly Weather History & Observations

Time (CDT) Temp. Heat Index Dew Point Humidity Pressure Visibility Wind Dir Wind Speed Gust Speed Precip Events Conditions
12:58 AM 88.2 °F 88.1 °F 61.3 °F 40% 29.80 in 10.0 mi East 8.1 mph - N/A   Mostly Cloudy
1:58 AM 84.2 °F 85.2 °F 63.1 °F 49% 29.80 in 10.0 mi ENE 5.8 mph - N/A   Clear
2:58 AM 82.4 °F 83.7 °F 63.5 °F 53% 29.80 in 10.0 mi East 8.1 mph - N/A   Scattered Clouds
3:58 AM 81.9 °F 83.5 °F 64.8 °F 56% 29.81 in 10.0 mi ENE 5.8 mph - N/A   Overcast
4:58 AM 84.2 °F 86.1 °F 65.3 °F 53% 29.81 in 10.0 mi East 10.4 mph - N/A   Mostly Cloudy
5:58 AM 80.2 °F 81.5 °F 62.6 °F 55% 29.84 in 10.0 mi East 12.7 mph 18.4 mph N/A   Clear
6:58 AM 76.6 °F - 63.5 °F 64% 29.85 in 10.0 mi East 8.1 mph - N/A   Clear
7:32 AM 77.0 °F - 64.4 °F 65% 29.89 in 10.0 mi ENE 8.1 mph - N/A   Light Drizzle
7:43 AM 75.2 °F - 66.2 °F 73% 29.87 in 9.0 mi East 9.2 mph - N/A Rain , Thunderstorm Light Thunderstorms and Rain
7:56 AM 73.4 °F - 68.0 °F 83% 29.89 in 10.0 mi North 8.1 mph - N/A Thunderstorm Thunderstorm
7:58 AM 73.4 °F - 68.0 °F 83% 29.86 in 10.0 mi NNW 8.1 mph - 0.00 in Thunderstorm Thunderstorm
7:59 AM 73.4 °F - 68.0 °F 83% 29.89 in 10.0 mi NW 8.1 mph - N/A Thunderstorm Mostly Cloudy
8:58 AM 76.3 °F - 66.0 °F 70% 29.96 in 10.0 mi NNW 24.2 mph 34.5 mph N/A Thunderstorm Overcast
9:24 AM 73.4 °F - 66.2 °F 78% 30.01 in 10.0 mi NNW 15.0 mph 23.0 mph N/A   Light Drizzle
9:55 AM 71.6 °F - 68.0 °F 88% 30.02 in 10.0 mi NNW 11.5 mph - N/A Rain , Thunderstorm Light Thunderstorms and Rain
9:58 AM 71.4 °F - 67.8 °F 88% 30.00 in 10.0 mi NW 12.7 mph - 0.00 in Rain , Thunderstorm Light Thunderstorms and Rain
10:10 AM 71.6 °F - 68.0 °F 88% 30.01 in 9.0 mi WNW 10.4 mph - N/A Rain , Thunderstorm Light Rain
10:58 AM 70.3 °F - 68.0 °F 92% 29.95 in 6.0 mi SW 3.5 mph - 0.08 in Rain Rain
11:55 AM 71.6 °F - 68.0 °F 88% 29.95 in 10.0 mi SSW 4.6 mph - N/A   Mostly Cloudy
11:58 AM 71.4 °F - 68.7 °F 91% 29.93 in 10.0 mi SSW 3.5 mph - 0.07 in   Mostly Cloudy
12:58 PM 72.1 °F - 68.4 °F 88% 29.94 in 10.0 mi Calm Calm - N/A   Overcast
1:58 PM 73.9 °F - 69.4 °F 86% 29.92 in 10.0 mi WNW 4.6 mph - N/A   Overcast
2:58 PM 78.4 °F - 69.8 °F 75% 29.91 in 10.0 mi WNW 9.2 mph - N/A   Mostly Cloudy
3:58 PM 81.7 °F 85.8 °F 71.1 °F 70% 29.90 in 10.0 mi West 11.5 mph - N/A   Mostly Cloudy
4:58 PM 82.8 °F 87.2 °F 70.7 °F 67% 29.88 in 10.0 mi NW 6.9 mph - N/A   Overcast
5:58 PM 85.6 °F 89.4 °F 68.7 °F 57% 29.86 in 10.0 mi NW 10.4 mph - N/A   Partly Cloudy
6:58 PM 86.5 °F 90.3 °F 68.7 °F 55% 29.85 in 10.0 mi NW 9.2 mph - N/A   Clear
7:58 PM 85.1 °F 87.4 °F 66.0 °F 53% 29.85 in 10.0 mi NNW 6.9 mph - N/A   Clear
8:58 PM 79.9 °F - 67.1 °F 65% 29.84 in 10.0 mi NNW 5.8 mph - N/A   Clear
9:58 PM 76.8 °F - 68.5 °F 75% 29.85 in 10.0 mi NNW 9.2 mph - N/A   Partly Cloudy
10:58 PM 74.1 °F - 68.0 °F 81% 29.88 in 10.0 mi North 8.1 mph - N/A   Clear
11:58 PM 73.8 °F - 67.5 °F 81% 29.87 in 10.0 mi NNW 4.6 mph - N/A   Clear